| time (UTC) | temp F | wind direction | speed MPH | gust MPH | rain 1hr in | rain 24hr in | rain mn in | humidity % | barometer mb |
| 20260901110045 | 68 | 214 | 6.0 | 10.0 | 0.00 | 0.00 | 0.00 | 90 | 1010.8 |
| 20260901104555 | 69 | 194 | 5.0 | 8.0 | 0.00 | 0.00 | 0.00 | 84 | 1010.6 |
| 20260901103052 | 68 | 207 | 4.0 | 7.0 | 0.00 | 0.00 | 0.00 | 84 | 1010.7 |
| 20260901101548 | 68 | 200 | 3.0 | 6.0 | 0.00 | 0.00 | 0.00 | 89 | 1010.8 |
| 20260901100056 | 67 | 190 | 3.0 | 6.0 | 0.00 | 0.00 | 0.00 | 91 | 1011.0 |
| 20260901094555 | 66 | 160 | 3.0 | 5.0 | 0.00 | 0.00 | 0.00 | 91 | 1011.0 |
| 20260901093050 | 67 | 168 | 1.0 | 6.0 | 0.00 | 0.00 | 0.00 | 92 | 1011.0 |
| 20260901091544 | 66 | 161 | 2.0 | 4.0 | 0.00 | 0.00 | 0.00 | 93 | 1010.9 |
| 20260901090056 | 66 | 172 | 0.0 | 4.0 | 0.00 | 0.00 | 0.00 | 93 | 1010.8 |
| 20260901084555 | 66 | 172 | 1.0 | 4.0 | 0.00 | 0.00 | 0.00 | 93 | 1010.8 |
| 20260901083048 | 66 | 163 | 1.0 | 4.0 | 0.00 | 0.00 | 0.00 | 94 | 1010.8 |
| 20260901081543 | 66 | 152 | 1.0 | 5.0 | 0.00 | 0.00 | 0.00 | 94 | 1010.8 |
| 20260901080057 | 66 | 154 | 1.0 | 5.0 | 0.00 | 0.00 | 0.00 | 96 | 1010.9 |
| 20260901074555 | 66 | 149 | 0.0 | 4.0 | 0.00 | 0.00 | 0.00 | 96 | 1011.0 |
| 20260901073047 | 66 | 156 | 1.0 | 3.0 | 0.00 | 0.00 | 0.00 | 96 | 1010.9 |
| 20260901071557 | 67 | 0 | 1.0 | 3.0 | 0.00 | 0.00 | 0.00 | 96 | 1010.9 |
| 20260901064552 | 68 | 0 | 0.0 | 0.0 | 0.00 | 0.03 | 0.00 | 97 | 1011.0 |
| 20260901063111 | 67 | 0 | 0.0 | 0.0 | 0.00 | 0.03 | 0.00 | 97 | 1011.0 |
| 20260901061622 | 67 | 175 | 0.0 | 3.0 | 0.00 | 0.03 | 0.00 | 97 | 1010.9 |
| 20260901060100 | 67 | 175 | 1.0 | 3.0 | 0.00 | 0.03 | 0.00 | 97 | 1010.8 |
| 20260901054553 | 67 | 175 | 1.0 | 3.0 | 0.00 | 0.03 | 0.00 | 98 | 1010.8 |
| 20260901053105 | 68 | 175 | 0.0 | 3.0 | 0.00 | 0.03 | 0.00 | 98 | 1010.9 |
| 20260901051556 | 68 | 175 | 0.0 | 1.0 | 0.00 | 0.03 | 0.00 | 98 | 1010.9 |
| 20260901050056 | 68 | 0 | 0.0 | 2.0 | 0.00 | 0.03 | 0.00 | 98 | 1011.0 |
| 20260901044600 | 68 | 175 | 1.0 | 4.0 | 0.00 | 0.03 | 0.03 | 98 | 1011.0 |
| 20260901043101 | 68 | 218 | 2.0 | 4.0 | 0.00 | 0.03 | 0.03 | 98 | 1011.0 |
| 20260901041553 | 68 | 0 | 0.0 | 2.0 | 0.00 | 0.03 | 0.03 | 98 | 1010.8 |
| 20260901040054 | 68 | 194 | 1.0 | 3.0 | 0.00 | 0.03 | 0.03 | 98 | 1010.7 |
| 20260901034549 | 69 | 194 | 2.0 | 4.0 | 0.00 | 0.03 | 0.03 | 97 | 1010.5 |
| 20260901033059 | 69 | 76 | 1.0 | 3.0 | 0.00 | 0.03 | 0.03 | 97 | 1010.7 |
| 20260901031600 | 69 | 0 | 0.0 | 2.0 | 0.00 | 0.03 | 0.03 | 96 | 1010.7 |
| 20260901030058 | 69 | 76 | 0.0 | 2.0 | 0.00 | 0.03 | 0.03 | 96 | 1010.7 |
| 20260901024559 | 69 | 0 | 0.0 | 0.0 | 0.00 | 0.03 | 0.03 | 96 | 1010.6 |
| 20260901023048 | 70 | 0 | 0.0 | 0.0 | 0.00 | 0.03 | 0.03 | 96 | 1010.5 |
| 20260901021601 | 70 | 0 | 0.0 | 0.0 | 0.00 | 0.03 | 0.03 | 95 | 1010.5 |
| 20260901020108 | 71 | 0 | 0.0 | 0.0 | 0.00 | 0.03 | 0.03 | 95 | 1010.4 |
| 20260901014550 | 71 | 76 | 1.0 | 4.0 | 0.00 | 0.03 | 0.03 | 95 | 1010.5 |
| 20260901013059 | 71 | 76 | 1.0 | 3.0 | 0.00 | 0.03 | 0.03 | 94 | 1010.3 |
| 20260901011555 | 72 | 0 | 1.0 | 2.0 | 0.00 | 0.03 | 0.03 | 93 | 1010.2 |
| 20260901010052 | 72 | 0 | 0.0 | 7.0 | 0.00 | 0.03 | 0.03 | 93 | 1010.2 |
| 20260901004607 | 73 | 98 | 4.0 | 7.0 | 0.00 | 0.03 | 0.03 | 92 | 1010.0 |
| 20260901003053 | 75 | 111 | 4.0 | 8.0 | 0.00 | 0.03 | 0.03 | 89 | 1010.0 |
| 20260901001556 | 77 | 130 | 5.0 | 9.0 | 0.00 | 0.03 | 0.03 | 83 | 1009.8 |
| 20260901000109 | 80 | 145 | 3.0 | 7.0 | 0.00 | 0.03 | 0.03 | 75 | 1009.7 |
| 20260831234555 | 83 | 170 | 2.0 | 4.0 | 0.00 | 0.03 | 0.03 | 69 | 1009.7 |
| 20260831233057 | 84 | 0 | 0.0 | 0.0 | 0.00 | 0.03 | 0.03 | 69 | 1009.6 |
| 20260831231555 | 81 | 0 | 0.0 | 0.0 | 0.00 | 0.03 | 0.03 | 74 | 1009.5 |
| 20260831230049 | 79 | 264 | 3.0 | 7.0 | 0.00 | 0.03 | 0.03 | 77 | 1009.6 |
| 20260831224546 | 80 | 288 | 7.0 | 10.0 | 0.00 | 0.03 | 0.03 | 75 | 1009.7 |
| 20260831223055 | 80 | 284 | 7.0 | 12.0 | 0.00 | 0.03 | 0.03 | 74 | 1009.5 |
| 20260831221555 | 78 | 301 | 7.0 | 10.0 | 0.00 | 0.03 | 0.03 | 79 | 1009.5 |
| 20260831220050 | 78 | 269 | 10.0 | 13.0 | 0.00 | 0.03 | 0.03 | 80 | 1009.5 |
| 20260831214601 | 77 | 288 | 11.0 | 14.0 | 0.00 | 0.03 | 0.03 | 83 | 1009.3 |
| 20260831213059 | 77 | 295 | 9.0 | 12.0 | 0.00 | 0.03 | 0.03 | 86 | 1009.2 |
| 20260831211627 | 76 | 309 | 8.0 | 12.0 | 0.00 | 0.03 | 0.03 | 87 | 1009.2 |
| 20260831210047 | 76 | 327 | 4.0 | 12.0 | 0.00 | 0.03 | 0.03 | 88 | 1009.2 |
| 20260831204544 | 76 | 319 | 11.0 | 14.0 | 0.00 | 0.03 | 0.03 | 88 | 1009.2 |
| 20260831203055 | 75 | 311 | 5.0 | 10.0 | 0.00 | 0.03 | 0.03 | 90 | 1009.0 |
| 20260831201550 | 75 | 300 | 7.0 | 9.0 | 0.00 | 0.03 | 0.03 | 90 | 1009.1 |
| 20260831200047 | 75 | 280 | 6.0 | 8.0 | 0.00 | 0.03 | 0.03 | 90 | 1009.0 |
| 20260831194635 | 75 | 281 | 5.0 | 7.0 | 0.00 | 0.03 | 0.03 | 90 | 1009.0 |
| 20260831193054 | 75 | 0 | 0.0 | 0.0 | 0.00 | 0.03 | 0.03 | 92 | 1009.1 |
| 20260831191549 | 74 | 0 | 0.0 | 0.0 | 0.00 | 0.03 | 0.03 | 96 | 1008.9 |
| 20260831190123 | 73 | 0 | 0.0 | 0.0 | 0.00 | 0.03 | 0.03 | 98 | 1008.9 |
| 20260831184605 | 72 | 0 | 0.0 | 0.0 | 0.00 | 0.03 | 0.03 | 97 | 1009.0 |
| 20260831183058 | 71 | 0 | 0.0 | 0.0 | 0.00 | 0.03 | 0.03 | 97 | 1009.3 |
| 20260831181559 | 71 | 0 | 0.0 | 0.0 | 0.00 | 0.03 | 0.03 | 94 | 1009.3 |
| 20260831180055 | 72 | 0 | 0.0 | 0.0 | 0.00 | 0.03 | 0.03 | 94 | 1009.1 |
| 20260831174549 | 72 | 0 | 0.0 | 0.0 | 0.00 | 0.03 | 0.03 | 94 | 1009.1 |
| 20260831173059 | 72 | 0 | 0.0 | 0.0 | 0.00 | 0.03 | 0.03 | 94 | 1008.9 |
| 20260831171554 | 71 | 0 | 0.0 | 0.0 | 0.00 | 0.03 | 0.03 | 96 | 1008.9 |
| 20260831170048 | 71 | 0 | 0.0 | 0.0 | 0.00 | 0.03 | 0.03 | 96 | 1008.8 |
| 20260831164554 | 70 | 0 | 0.0 | 0.0 | 0.00 | 0.04 | 0.03 | 95 | 1008.8 |
| 20260831163056 | 70 | 0 | 0.0 | 0.0 | 0.00 | 0.04 | 0.03 | 95 | 1008.7 |
| 20260831161555 | 70 | 0 | 0.0 | 2.0 | 0.00 | 0.04 | 0.03 | 95 | 1008.6 |
| 20260831160049 | 70 | 263 | 2.0 | 4.0 | 0.00 | 0.04 | 0.03 | 95 | 1008.7 |
| 20260831154659 | 71 | 251 | 2.0 | 4.0 | 0.00 | 0.04 | 0.03 | 94 | 1008.6 |
| 20260831153054 | 72 | 185 | 3.0 | 5.0 | 0.00 | 0.04 | 0.03 | 93 | 1008.3 |
| 20260831151548 | 72 | 171 | 2.0 | 5.0 | 0.00 | 0.04 | 0.03 | 93 | 1008.3 |
| 20260831150047 | 72 | 182 | 3.0 | 6.0 | 0.00 | 0.04 | 0.03 | 93 | 1008.2 |
| 20260831144556 | 72 | 166 | 4.0 | 7.0 | 0.00 | 0.04 | 0.03 | 94 | 1008.0 |
| 20260831143109 | 71 | 163 | 3.0 | 6.0 | 0.00 | 0.04 | 0.03 | 95 | 1007.7 |
| 20260831141613 | 71 | 130 | 4.0 | 7.0 | 0.00 | 0.04 | 0.03 | 97 | 1007.5 |
| 20260831140056 | 70 | 132 | 3.0 | 7.0 | 0.00 | 0.04 | 0.03 | 98 | 1007.5 |
| 20260831134545 | 70 | 117 | 3.0 | 6.0 | 0.00 | 0.04 | 0.03 | 98 | 1007.7 |
| 20260831133054 | 69 | 9 | 1.0 | 4.0 | 0.00 | 0.04 | 0.03 | 97 | 1007.9 |
| 20260831131554 | 70 | 9 | 0.0 | 0.0 | 0.00 | 0.04 | 0.03 | 98 | 1007.7 |
| 20260831130054 | 70 | 0 | 0.0 | 3.0 | 0.00 | 0.04 | 0.03 | 99 | 1007.5 |
| 20260831124608 | 69 | 92 | 3.0 | 6.0 | 0.00 | 0.04 | 0.03 | 99 | 1007.3 |
| 20260831123056 | 69 | 32 | 2.0 | 5.0 | 0.00 | 0.04 | 0.03 | 99 | 1007.7 |
| 20260831121549 | 69 | 12 | 3.0 | 5.0 | 0.00 | 0.04 | 0.03 | 99 | 1007.8 |
| 20260831120051 | 69 | 136 | 2.0 | 4.0 | 0.00 | 0.04 | 0.03 | 98 | 1007.6 |
| 20260831114557 | 69 | 92 | 3.0 | 4.0 | 0.00 | 0.04 | 0.03 | 99 | 1007.5 |
| 20260831113056 | 69 | 0 | 0.0 | 4.0 | 0.00 | 0.04 | 0.03 | 99 | 1007.5 |
| 20260831111550 | 69 | 88 | 2.0 | 3.0 | 0.00 | 0.04 | 0.03 | 98 | 1007.3 |